Dubuque, IA

6:39 AM CDT on August 23, 2019 (GMT -0500)
Dubuque Regional

Weather History for KDBQ - June, 2019

Change the Weather History Date:

Friday, June 14, 2019

  Actual Average Record
Temperature  
Mean Temperature 64 °F 68 °F  
Max Temperature 77 °F 78 °F 96 °F (1894)
Min Temperature 51 °F 58 °F 47 °F (1969)
Degree Days  
Heating Degree Days 1 1  
Month to date heating degree days 21 29  
Since 1 June heating degree days 21 29  
Since 1 July heating degree days 7423 7075  
Cooling Degree Days 0 4  
Month to date cooling degree days 38 45  
Year to date cooling degree days 64 82  
Since 1 June cooling degree days 38 45  
Growing Degree Days 14 (Base 50)    
Moisture  
Dew Point 50 °F    
Average Humidity 62    
Maximum Humidity 84    
Minimum Humidity 43    
Precipitation  
Precipitation T in 0.15 in 3.66 in (1938)
Month to date precipitation 2.41 2.10  
Year to date precipitation 19.65 14.97  
Snow  
Snow 0.00 in 0.00 in - ()
Month to date snowfall 0.0 0.0  
Since 1 June snowfall 0.0 0.0  
Since 1 July snowfall 55.2 41.9  
Snow Depth 0.00 in    
Sea Level Pressure  
Sea Level Pressure 29.89 in    
Wind  
Wind Speed 12 mph ()    
Max Wind Speed 30 mph    
Max Gust Speed 40 mph    
Visibility 10.0 miles    
Events Rain    
T = Trace of Precipitation, MM = Missing Value Source: Averaged Metar Reports

Daily Weather History Graph

Daily Weather History Graph

Search for Another Location

Airport or City:

Astronomy

Jun. 14, 2019 Rise Set
Actual Time 5:25 AM CDT 8:41 PM CDT
Civil Twilight 4:50 AM CDT 9:15 PM CDT
Nautical Twilight 4:05 AM CDT 10:00 PM CDT
Astronomical Twilight 3:11 AM CDT 10:55 PM CDT
Moon 5:59 PM CDT (6/14) 3:47 AM CDT (6/14)
Length of Visible Light 16h 25m
Length of Day
15h 15m
Waxing Gibbous, 92% of the Moon is Illuminated
Jun 14
Waxing Gibbous
Jun 17
Full
Jun 25
Last Quarter
Jul 2
New
Jul 9
First Quarter

Hourly Weather History & Observations

Time (CDT) Temp. Dew Point Humidity Pressure Visibility Wind Dir Wind Speed Gust Speed Precip Events Conditions
12:53 AM 52.0 °F 43.0 °F 71% 30.01 in 10.0 mi South 5.8 mph - N/A   Clear
1:53 AM 52.0 °F 43.0 °F 71% 30.00 in 10.0 mi SSE 8.1 mph - N/A   Clear
2:53 AM 52.0 °F 44.1 °F 74% 29.99 in 10.0 mi SSW 4.6 mph - N/A   Clear
3:53 AM 54.0 °F 43.0 °F 66% 29.98 in 10.0 mi SSW 11.5 mph - N/A   Clear
4:53 AM 54.0 °F 44.1 °F 69% 29.96 in 10.0 mi SSW 11.5 mph - N/A   Overcast
5:53 AM 53.1 °F 45.0 °F 74% 29.96 in 10.0 mi South 8.1 mph - N/A   Clear
6:53 AM 57.0 °F 46.9 °F 69% 29.95 in 10.0 mi SSW 13.8 mph - N/A   Clear
7:53 AM 62.1 °F 48.9 °F 62% 29.94 in 10.0 mi SSW 17.3 mph - N/A   Clear
8:53 AM 66.0 °F 51.1 °F 59% 29.94 in 10.0 mi SSW 19.6 mph 27.6 mph N/A   Clear
9:53 AM 70.0 °F 53.1 °F 55% 29.92 in 10.0 mi SSW 20.7 mph 35.7 mph N/A   Clear
10:53 AM 72.0 °F 53.1 °F 51% 29.91 in 10.0 mi SSW 21.9 mph 32.2 mph N/A   Clear
11:53 AM 70.0 °F 51.1 °F 51% 29.89 in 10.0 mi SSW 20.7 mph 32.2 mph N/A   Mostly Cloudy
12:53 PM 73.0 °F 53.1 °F 49% 29.87 in 10.0 mi SSW 23.0 mph 33.4 mph N/A   Scattered Clouds
1:53 PM 73.9 °F 51.1 °F 45% 29.83 in 10.0 mi SSW 20.7 mph 36.8 mph N/A   Clear
2:53 PM 75.9 °F 52.0 °F 43% 29.80 in 10.0 mi SSW 25.3 mph 34.5 mph N/A   Clear
3:53 PM 68.0 °F 53.1 °F 59% 29.81 in 10.0 mi SW 17.3 mph 29.9 mph 0.00 in Rain Light Rain
4:53 PM 70.0 °F 54.0 °F 57% 29.80 in 10.0 mi SSW 16.1 mph - 0.00 in   Mostly Cloudy
5:53 PM 69.1 °F 54.0 °F 58% 29.79 in 10.0 mi SSW 18.4 mph 27.6 mph N/A   Overcast
6:53 PM 63.0 °F 57.9 °F 84% 29.79 in 10.0 mi South 13.8 mph - 0.00 in   Overcast
7:53 PM 64.9 °F 55.9 °F 73% 29.79 in 10.0 mi SSW 16.1 mph - N/A   Overcast
8:53 PM 64.9 °F 55.0 °F 70% 29.79 in 10.0 mi South 12.7 mph - N/A   Overcast